This is the latest recevied weather packets stored in our database for station/object DM8MH-13. If no packets are shown the sender has not sent any weather packets the latest 10 day(s).
| Time | Temp. | Humidity | Pressure | Rain* | Wind** | Luminosity | Snow |
|---|---|---|---|---|---|---|---|
| 1778146273 | 7.78° C | 92% | 1012.3 hPa | 1.52 mm | - | 67 W/m² | - |
| 1778145674 | 7.78° C | 92% | 1012.3 hPa | 1.52 mm | - | 62 W/m² | - |
| 1778145074 | 7.78° C | 92% | 1012.1 hPa | 1.52 mm | - | 63 W/m² | - |
| 1778144474 | 7.78° C | 92% | 1011.9 hPa | 1.52 mm | - | 64 W/m² | - |
| 1778143874 | 7.78° C | 92% | 1011.8 hPa | 1.52 mm | - | 66 W/m² | - |
| 1778143273 | 7.78° C | 92% | 1011.6 hPa | 1.52 mm | - | 63 W/m² | - |
| 1778142673 | 7.78° C | 92% | 1011.5 hPa | 1.78 mm | - | 73 W/m² | - |
| 1778142074 | 7.78° C | 92% | 1011.3 hPa | 1.78 mm | - | 69 W/m² | - |
| 1778141473 | 7.78° C | 92% | 1011.3 hPa | 2.03 mm | - | 62 W/m² | - |
| 1778140873 | 7.78° C | 92% | 1011.1 hPa | 2.03 mm | - | 53 W/m² | - |
| 1778140274 | 7.78° C | 92% | 1011 hPa | 2.03 mm | - | 47 W/m² | - |
| 1778139674 | 7.78° C | 92% | 1010.8 hPa | 1.78 mm | - | 46 W/m² | - |
| 1778139074 | 7.78° C | 92% | 1010.7 hPa | 1.78 mm | - | 47 W/m² | - |
| 1778138475 | 7.78° C | 92% | 1010.6 hPa | 1.52 mm | - | 51 W/m² | - |
| 1778137873 | 7.78° C | 92% | 1010.4 hPa | 1.52 mm | - | 47 W/m² | - |
| 1778137273 | 7.78° C | 92% | 1010.3 hPa | 1.27 mm | - | 44 W/m² | - |
| 1778136673 | 7.78° C | 92% | 1010.2 hPa | 1.52 mm | - | 42 W/m² | - |
| 1778136073 | 8.33° C | 92% | 1010 hPa | 1.52 mm | - | 34 W/m² | - |
| 1778135474 | 8.33° C | 92% | 1010 hPa | 1.52 mm | - | 25 W/m² | - |
| 1778134873 | 8.33° C | 93% | 1009.9 hPa | 2.03 mm | - | 23 W/m² | - |
| 1778134273 | 8.89° C | 93% | 1009.6 hPa | 2.03 mm | - | 19 W/m² | - |
| 1778133673 | 9.44° C | 93% | 1009.5 hPa | 2.29 mm | - | 11 W/m² | - |
| 1778133074 | 9.44° C | 93% | 1009.3 hPa | 2.29 mm | - | 17 W/m² | - |
| 1778132474 | 9.44° C | 93% | 1009.1 hPa | 2.29 mm | - | 12 W/m² | - |
| 1778131874 | 9.44° C | 93% | 1009 hPa | 2.03 mm | - | 12 W/m² | - |
* Rain latest hour (hover to see other rain measurements)
** Current wind speed in m/s (hover to see current wind gust speed)